Location: Waco, TX
(31.5480°N, 97.1670°W)
Time: 17:27:45
(UTC-05:00)

ISS - Pass Details

Date: 23 September 2018
Orbit: 403 x 408 km, 51.6° (Epoch: 23 September)

Event Time Altitude Azimuth Distance (km) Brightness Sun altitude
Rises 03:37:06 0° 320° (NW) 2,323 - -45.0°
Reaches altitude 10° 03:39:13 10° 326° (NW) 1,460 - -44.7°
Maximum altitude 03:42:25 50° 43° (NE) 522 - -44.1°
Drops below altitude 10° 03:45:35 10° 120° (ESE) 1,450 - -43.6°
Sets 03:47:41 0° 126° (SE) 2,305 - -43.2°
